TimeEDT,TemperatureF,Dew PointF,Humidity,Sea Level PressureIn,VisibilityMPH,Wind Direction,Wind SpeedMPH,Gust SpeedMPH,PrecipitationIn,Events,Conditions,WindDirDegrees,DateUTC
12:25 AM,45.3,40.8,84,29.63,-9999.0,Variable,6.9,15.0,0.01,,Unknown,0,2012-10-22 04:25:00
1:28 AM,45.5,39.6,80,29.63,-9999.0,Variable,6.9,20.7,0.02,,Unknown,0,2012-10-22 05:28:00
2:25 AM,45.5,39.4,79,29.64,-9999.0,WSW,6.9,17.3,N/A,,Unknown,240,2012-10-22 06:25:00
3:25 AM,45.0,39.9,82,29.64,-9999.0,WSW,8.1,19.6,0.11,,Unknown,240,2012-10-22 07:25:00
4:25 AM,45.3,39.4,80,29.64,-9999.0,WSW,6.9,18.4,N/A,,Unknown,240,2012-10-22 08:25:00
5:25 AM,45.3,39.2,79,29.65,-9999.0,Variable,4.6,20.7,0.01,,Unknown,0,2012-10-22 09:25:00
6:25 AM,45.1,39.2,80,29.67,-9999.0,Variable,5.8,21.9,N/A,,Unknown,0,2012-10-22 10:25:00
7:25 AM,44.2,38.7,81,29.69,-9999.0,Variable,3.5,16.1,0.02,,Unknown,0,2012-10-22 11:25:00
8:25 AM,44.8,38.3,78,29.70,-9999.0,Variable,3.5,18.4,0.28,,Unknown,0,2012-10-22 12:25:00
9:27 AM,47.5,39.0,72,29.72,-9999.0,WSW,10.4,23.0,0.00,,Unknown,250,2012-10-22 13:27:00
10:25 AM,49.6,38.3,65,29.71,-9999.0,WSW,6.9,24.2,0.01,,Unknown,250,2012-10-22 14:25:00
11:25 AM,51.3,37.4,59,29.72,-9999.0,Variable,4.6,19.6,N/A,,Unknown,0,2012-10-22 15:25:00
12:25 PM,50.5,35.2,56,29.72,-9999.0,West,6.9,21.9,N/A,,Unknown,270,2012-10-22 16:25:00
1:28 PM,51.6,34.9,53,29.72,-9999.0,West,6.9,19.6,N/A,,Unknown,260,2012-10-22 17:28:00
2:25 PM,51.1,33.6,51,29.72,-9999.0,West,8.1,26.5,N/A,,Unknown,280,2012-10-22 18:25:00
3:25 PM,50.7,33.8,52,29.74,-9999.0,Variable,5.8,24.2,N/A,,Unknown,0,2012-10-22 19:25:00
4:25 PM,50.0,33.8,54,29.73,-9999.0,Variable,4.6,17.3,N/A,,Unknown,0,2012-10-22 20:25:00
5:25 PM,47.8,33.4,57,29.77,-9999.0,Variable,5.8,13.8,N/A,,Unknown,0,2012-10-22 21:25:00
6:26 PM,45.3,33.3,63,29.80,-9999.0,Variable,3.5,-,N/A,,Unknown,0,2012-10-22 22:26:00
7:30 PM,43.0,32.5,67,29.81,-9999.0,Calm,Calm,-,0.01,,Unknown,0,2012-10-22 23:30:00
8:25 PM,44.1,31.6,62,29.83,-9999.0,Variable,2.3,11.5,N/A,,Unknown,0,2012-10-23 00:25:00
9:25 PM,43.0,32.7,67,29.85,-9999.0,Variable,2.3,-,N/A,,Unknown,0,2012-10-23 01:25:00
10:25 PM,41.9,31.1,66,29.87,-9999.0,Variable,3.5,-,N/A,,Unknown,0,2012-10-23 02:25:00
11:25 PM,39.9,29.3,66,29.88,-9999.0,Variable,4.6,-,N/A,,Unknown,0,2012-10-23 03:25:00